Omaha Offutt, NE

11:08 PM CDT on March 25, 2017 (GMT -0500)
Offutt Air Force Base

Weather History for KOFF - January, 2015

Change the Weather History Date:

Wednesday, January 21, 2015

  Actual Average Record
Temperature  
Mean Temperature 35 °F -  
Max Temperature 44 °F 31 °F 53 °F (2002)
Min Temperature 26 °F 14 °F -2 °F (2014)
Degree Days  
Heating Degree Days 30    
Moisture  
Dew Point 29 °F    
Average Humidity 79    
Maximum Humidity 90    
Minimum Humidity 53    
Precipitation  
Precipitation 0.00 in - - ()
Sea Level Pressure  
Sea Level Pressure 30.26 in    
Wind  
Wind Speed 8 mph (NNW)    
Max Wind Speed 16 mph    
Max Gust Speed -    
Visibility 10 miles    
Events Rain    
Averages and records for this station are not official NWS values.
T = Trace of Precipitation, MM = Missing Value Source: NWS Daily Summary

Daily Weather History Graph

Daily Weather History Graph

Search for Another Location

Airport or City:

Trip Planner

Search our weather history database for the weather conditions in past years. The results will help you decide how hot, cold, wet, or windy it might be!

Date:

Astronomy

Jan. 21, 2015 Rise Set
Actual Time 7:43 AM CST 5:26 PM CST
Civil Twilight 7:13 AM CST 5:56 PM CST
Nautical Twilight 6:40 AM CST 6:30 PM CST
Astronomical Twilight 6:07 AM CST 7:03 PM CST
Moon 8:13 AM CST (1/21) 7:17 PM CST (1/21)
Length of Visible Light 10h 42m
Length of Day
9h 43m
New Moon, 2% of the Moon is Illuminated
Jan 21
New Moon
Jan 26
First Quarter
Feb 3
Full
Feb 11
Last Quarter
Feb 18
New

Hourly Weather History & Observations

Time (CST) Temp. Windchill Dew Point Humidity Pressure Visibility Wind Dir Wind Speed Gust Speed Precip Events Conditions
12:58 AM 34.5 °F 27.3 °F 27.5 °F 76% 30.11 in 10.0 mi West 9.2 mph - N/A   Scattered Clouds
1:58 AM 31.5 °F 23.5 °F 27.3 °F 85% 30.12 in 10.0 mi WNW 9.2 mph - N/A   Clear
2:58 AM 29.1 °F 23.0 °F 26.1 °F 88% 30.12 in 10.0 mi West 5.8 mph - N/A   Clear
3:58 AM 28.8 °F 20.9 °F 25.5 °F 88% 30.12 in 10.0 mi WNW 8.1 mph - N/A   Clear
4:58 AM 26.8 °F 20.2 °F 24.1 °F 90% 30.14 in 10.0 mi NW 5.8 mph - N/A   Clear
5:18 AM 26.6 °F 21.2 °F 23.0 °F 86% 30.11 in 10.0 mi NNW 4.6 mph - N/A   Mostly Cloudy
5:40 AM 28.4 °F 22.2 °F 24.8 °F 86% 30.11 in 10.0 mi WNW 5.8 mph - N/A   Scattered Clouds
5:58 AM 29.1 °F 22.1 °F 25.9 °F 88% 30.16 in 10.0 mi West 6.9 mph - N/A   Mostly Cloudy
6:58 AM 29.7 °F 22.8 °F 26.1 °F 86% 30.17 in 10.0 mi WNW 6.9 mph - N/A   Overcast
7:58 AM 30.4 °F 23.6 °F 26.1 °F 84% 30.19 in 10.0 mi West 6.9 mph - N/A   Overcast
8:58 AM 31.1 °F 23.7 °F 26.4 °F 83% 30.20 in 10.0 mi WNW 8.1 mph - N/A   Overcast
9:58 AM 34.5 °F 26.2 °F 27.5 °F 76% 30.22 in 10.0 mi WNW 11.5 mph - N/A   Scattered Clouds
10:58 AM 41.2 °F 33.4 °F 28.4 °F 60% 30.23 in 10.0 mi NW 15.0 mph - N/A   Clear
11:58 AM 43.2 °F 35.6 °F 28.9 °F 57% 30.23 in 10.0 mi WNW 16.1 mph - N/A   Partly Cloudy
12:58 PM 43.9 °F 37.5 °F 28.9 °F 56% 30.22 in 10.0 mi NW 12.7 mph - N/A   Scattered Clouds
1:58 PM 44.6 °F 39.7 °F 28.4 °F 53% 30.22 in 10.0 mi NNW 9.2 mph - N/A   Mostly Cloudy
2:58 PM 42.3 °F 37.3 °F 29.5 °F 61% 30.23 in 10.0 mi North 8.1 mph - N/A   Overcast
3:16 PM 41.0 °F 35.8 °F 32.0 °F 70% 30.20 in 10.0 mi North 8.1 mph - N/A   Overcast
3:26 PM 41.0 °F 36.4 °F 30.2 °F 65% 30.20 in 10.0 mi North 6.9 mph - N/A   Overcast
3:58 PM 41.4 °F 38.4 °F 30.4 °F 65% 30.26 in 10.0 mi NNW 4.6 mph - 0.00 in   Mostly Cloudy
4:58 PM 39.9 °F 37.8 °F 30.2 °F 68% 30.27 in 10.0 mi NNW 3.5 mph - N/A   Overcast
5:58 PM 38.5 °F 32.7 °F 30.7 °F 74% 30.30 in 10.0 mi North 8.1 mph - N/A   Overcast
6:08 PM 37.4 °F 30.8 °F 32.0 °F 81% 30.26 in 10.0 mi North 9.2 mph - N/A   Overcast
6:12 PM 37.4 °F 31.4 °F 32.0 °F 81% 30.26 in 10.0 mi North 8.1 mph - N/A Rain Light Rain
6:15 PM 37.4 °F 30.8 °F 32.0 °F 81% 30.26 in 10.0 mi North 9.2 mph - N/A Rain Light Rain
6:31 PM 37.4 °F 32.1 °F 32.0 °F 81% 30.27 in 10.0 mi North 6.9 mph - N/A   Overcast
6:41 PM 37.4 °F 31.4 °F 32.0 °F 81% 30.28 in 10.0 mi North 8.1 mph - N/A Rain Light Rain
6:54 PM 37.4 °F 31.4 °F 32.0 °F 81% 30.28 in 10.0 mi North 8.1 mph - N/A   Mostly Cloudy
6:58 PM 36.7 °F 29.9 °F 31.5 °F 81% 30.33 in 10.0 mi North 9.2 mph - 0.00 in   Mostly Cloudy
7:20 PM 35.6 °F 29.2 °F 32.0 °F 87% 30.29 in 10.0 mi North 8.1 mph - N/A   Mostly Cloudy
7:27 PM 35.6 °F 29.2 °F 32.0 °F 87% 30.30 in 10.0 mi North 8.1 mph - N/A   Mostly Cloudy
7:58 PM 36.0 °F 29.6 °F 31.1 °F 82% 30.36 in 10.0 mi NNW 8.1 mph - N/A   Overcast
8:58 PM 35.2 °F 30.3 °F 30.0 °F 81% 30.39 in 10.0 mi NNW 5.8 mph - N/A   Overcast
9:14 PM 33.8 °F 26.4 °F 30.2 °F 87% 30.34 in 10.0 mi North 9.2 mph - N/A   Overcast
9:19 PM 33.8 °F 26.4 °F 30.2 °F 87% 30.35 in 10.0 mi North 9.2 mph - N/A   Overcast
9:37 PM 33.8 °F 27.0 °F 28.4 °F 81% 30.35 in 10.0 mi North 8.1 mph - N/A   Mostly Cloudy
9:49 PM 32.0 °F 26.4 °F 28.4 °F 87% 30.35 in 10.0 mi North 5.8 mph - N/A   Mostly Cloudy
9:58 PM 33.4 °F 28.1 °F 28.2 °F 81% 30.40 in 10.0 mi North 5.8 mph - N/A   Mostly Cloudy
10:35 PM 32.0 °F 28.7 °F 28.4 °F 87% 30.36 in 10.0 mi North 3.5 mph - N/A   Mostly Cloudy
10:42 PM 32.0 °F - 28.4 °F 87% 30.36 in 10.0 mi North 2.3 mph - N/A   Mostly Cloudy
10:58 PM 32.0 °F - 27.5 °F 83% 30.40 in 10.0 mi North 2.3 mph - N/A   Overcast
11:58 PM 29.8 °F 24.9 °F 25.7 °F 85% 30.41 in 10.0 mi NNW 4.6 mph - N/A   Overcast